{"data":{"norad_id":47391,"intl_designator":"2021-005AU","name":"STARLINK-2112","alt_names":[],"object_type":"PAYLOAD","status":"ACTIVE","operator":null,"country":"US","launch_date":"2021-01-20","launch_site_code":"AFETR","launch_vehicle":null,"mission":null,"orbit_class":"UNKNOWN","rcs_meters":null,"size_class":null,"mass_kg":null,"dimensions":null,"purposes":["comms"],"wikipedia_slug":null,"has_3d_model":false,"image_url":null,"decayed_at":null,"tle_current":{"epoch":"2026-05-25T03:46:24.487968Z","epoch_age_seconds":57639,"freshness":"FRESH","line1":"1 47391U 21005AU  26145.15722787  .00015137  00000+0  91215-3 0  9996","line2":"2 47391  53.0681  47.0402 0002388  99.8082 260.3179 15.10977874295006","mean_motion":15.10977874,"eccentricity":0.0002388,"inclination_deg":53.0681,"raan_deg":47.0402,"arg_perigee_deg":99.8082,"mean_anomaly_deg":260.3179,"bstar":0.00091215,"rev_number":29500,"period_min":95.302520624468,"perigee_km":531.56603825615,"apogee_km":534.86690067317,"semimajor_km":6911.3534694647,"source":"CELESTRAK","updated_at":"2026-05-25T13:38:16.553351Z"}}}